| time (UTC) | temp F | wind direction | speed MPH | gust MPH | rain 1hr in | rain 24hr in | rain mn in | humidity % | barometer mb |
| 20260901070027 | 69 | 251 | 0.0 | 0.0 | 0.00 | 0.16 | 0.00 | 96 | 1017.8 |
| 20260901064520 | 69 | 251 | 0.0 | 3.0 | 0.00 | 0.16 | 0.00 | 97 | 1017.9 |
| 20260901063018 | 68 | 233 | 2.0 | 4.0 | 0.00 | 0.16 | 0.00 | 96 | 1018.0 |
| 20260901061517 | 67 | 239 | 0.0 | 2.0 | 0.00 | 0.16 | 0.00 | 96 | 1018.1 |
| 20260901060016 | 67 | 174 | 0.0 | 1.0 | 0.00 | 0.16 | 0.00 | 96 | 1018.1 |
| 20260901054514 | 67 | 165 | 0.0 | 2.0 | 0.00 | 0.16 | 0.00 | 96 | 1018.2 |
| 20260901053014 | 67 | 165 | 0.0 | 0.0 | 0.00 | 0.16 | 0.00 | 95 | 1018.2 |
| 20260901051511 | 67 | 165 | 0.0 | 1.0 | 0.00 | 0.16 | 0.00 | 95 | 1018.2 |
| 20260901050010 | 67 | 165 | 0.0 | 0.0 | 0.00 | 0.16 | 0.00 | 95 | 1018.2 |
| 20260901044509 | 68 | 165 | 0.0 | 1.0 | 0.00 | 0.16 | 0.00 | 95 | 1018.2 |
| 20260901043007 | 68 | 165 | 0.0 | 0.0 | 0.00 | 0.16 | 0.00 | 95 | 1018.3 |
| 20260901041505 | 68 | 165 | 0.0 | 0.0 | 0.00 | 0.16 | 0.00 | 95 | 1018.1 |
| 20260901040105 | 69 | 165 | 0.0 | 1.0 | 0.00 | 0.16 | 0.00 | 95 | 1018.2 |
| 20260901040003 | 69 | 165 | 0.0 | 1.0 | 0.00 | 0.16 | 0.00 | 95 | 1018.2 |
| 20260901034606 | 69 | 165 | 0.0 | 0.0 | 0.00 | 0.16 | 0.16 | 94 | 1018.2 |
| 20260901033107 | 70 | 165 | 0.0 | 0.0 | 0.00 | 0.16 | 0.16 | 94 | 1018.2 |
| 20260901031559 | 70 | 165 | 0.0 | 0.0 | 0.00 | 0.16 | 0.16 | 94 | 1018.3 |
| 20260901030059 | 71 | 165 | 0.0 | 1.0 | 0.00 | 0.16 | 0.16 | 94 | 1018.4 |
| 20260901024606 | 71 | 165 | 0.0 | 0.0 | 0.00 | 0.16 | 0.16 | 94 | 1018.6 |
| 20260901023048 | 72 | 165 | 0.0 | 1.0 | 0.00 | 0.16 | 0.16 | 93 | 1018.6 |
| 20260901021548 | 72 | 165 | 0.0 | 0.0 | 0.00 | 0.16 | 0.16 | 93 | 1018.8 |
| 20260901020047 | 72 | 165 | 0.0 | 0.0 | 0.00 | 0.16 | 0.16 | 93 | 1018.8 |
| 20260901014546 | 73 | 165 | 0.0 | 1.0 | 0.00 | 0.16 | 0.16 | 93 | 1018.8 |
| 20260901013046 | 73 | 165 | 0.0 | 0.0 | 0.00 | 0.16 | 0.16 | 92 | 1018.8 |
| 20260901011554 | 73 | 165 | 1.0 | 2.0 | 0.00 | 0.16 | 0.16 | 92 | 1018.8 |
| 20260901010046 | 73 | 244 | 0.0 | 2.0 | 0.00 | 0.16 | 0.16 | 92 | 1018.9 |
| 20260901004544 | 74 | 205 | 1.0 | 3.0 | 0.00 | 0.16 | 0.16 | 92 | 1018.6 |
| 20260901003051 | 74 | 252 | 0.0 | 3.0 | 0.00 | 0.16 | 0.16 | 92 | 1018.4 |
| 20260901001544 | 74 | 240 | 0.0 | 1.0 | 0.00 | 0.16 | 0.16 | 91 | 1018.2 |
| 20260901000044 | 75 | 238 | 1.0 | 2.0 | 0.00 | 0.16 | 0.16 | 90 | 1018.1 |
| 20260831234542 | 76 | 205 | 0.0 | 2.0 | 0.00 | 0.16 | 0.16 | 88 | 1018.0 |
| 20260831233041 | 77 | 216 | 0.0 | 1.0 | 0.00 | 0.16 | 0.16 | 87 | 1017.9 |
| 20260831231540 | 77 | 211 | 0.0 | 2.0 | 0.00 | 0.16 | 0.16 | 86 | 1018.0 |
| 20260831230041 | 77 | 211 | 1.0 | 3.0 | 0.00 | 0.16 | 0.16 | 85 | 1018.1 |
| 20260831224539 | 78 | 232 | 1.0 | 4.0 | 0.00 | 0.16 | 0.16 | 84 | 1018.1 |
| 20260831223041 | 78 | 248 | 1.0 | 6.0 | 0.00 | 0.16 | 0.16 | 84 | 1018.1 |
| 20260831221541 | 78 | 201 | 3.0 | 6.0 | 0.00 | 0.16 | 0.16 | 83 | 1018.3 |
| 20260831220036 | 78 | 220 | 3.0 | 7.0 | 0.00 | 0.16 | 0.16 | 82 | 1018.3 |
| 20260831214542 | 79 | 220 | 5.0 | 9.0 | 0.00 | 0.16 | 0.16 | 81 | 1018.3 |
| 20260831213040 | 79 | 236 | 4.0 | 10.0 | 0.00 | 0.16 | 0.16 | 79 | 1018.3 |
| 20260831211532 | 81 | 240 | 3.0 | 10.0 | 0.00 | 0.16 | 0.16 | 78 | 1018.5 |
| 20260831210033 | 81 | 202 | 6.0 | 11.0 | 0.00 | 0.16 | 0.16 | 79 | 1018.5 |
| 20260831204530 | 81 | 204 | 3.0 | 10.0 | 0.00 | 0.16 | 0.16 | 79 | 1018.5 |
| 20260831203043 | 80 | 207 | 5.0 | 10.0 | 0.00 | 0.16 | 0.16 | 79 | 1018.7 |
| 20260831201525 | 81 | 223 | 5.0 | 11.0 | 0.00 | 0.16 | 0.16 | 80 | 1018.9 |
| 20260831200030 | 80 | 273 | 4.0 | 8.0 | 0.00 | 0.16 | 0.16 | 79 | 1019.0 |
| 20260831194523 | 80 | 161 | 4.0 | 8.0 | 0.00 | 0.16 | 0.16 | 80 | 1019.0 |
| 20260831193019 | 79 | 247 | 3.0 | 11.0 | 0.00 | 0.16 | 0.16 | 80 | 1019.3 |
| 20260831191514 | 78 | 207 | 3.0 | 9.0 | 0.00 | 0.16 | 0.16 | 82 | 1019.4 |
| 20260831190011 | 78 | 170 | 3.0 | 6.0 | 0.00 | 0.16 | 0.16 | 79 | 1019.8 |
| 20260831184509 | 77 | 254 | 1.0 | 5.0 | 0.00 | 0.16 | 0.16 | 81 | 1019.9 |
| 20260831183007 | 77 | 158 | 3.0 | 7.0 | 0.00 | 0.16 | 0.16 | 80 | 1019.7 |
| 20260831181507 | 77 | 238 | 3.0 | 8.0 | 0.00 | 0.16 | 0.16 | 78 | 1019.8 |
| 20260831180003 | 77 | 163 | 3.0 | 6.0 | 0.00 | 0.16 | 0.16 | 79 | 1020.1 |
| 20260831174601 | 75 | 206 | 1.0 | 6.0 | 0.00 | 0.16 | 0.16 | 82 | 1020.4 |
| 20260831173057 | 74 | 126 | 2.0 | 5.0 | 0.00 | 0.16 | 0.16 | 84 | 1020.5 |
| 20260831171558 | 74 | 71 | 2.0 | 4.0 | 0.00 | 0.16 | 0.16 | 83 | 1020.6 |
| 20260831170054 | 74 | 92 | 2.0 | 3.0 | 0.00 | 0.16 | 0.16 | 84 | 1020.8 |
| 20260831164552 | 73 | 198 | 0.0 | 3.0 | 0.00 | 0.16 | 0.16 | 84 | 1020.9 |
| 20260831163049 | 73 | 156 | 1.0 | 3.0 | 0.00 | 0.16 | 0.16 | 86 | 1020.9 |
| 20260831161545 | 72 | 171 | 2.0 | 5.0 | 0.00 | 0.16 | 0.16 | 85 | 1021.1 |
| 20260831160112 | 72 | 219 | 0.0 | 3.0 | 0.00 | 0.16 | 0.16 | 88 | 1021.1 |
| 20260831154539 | 72 | 200 | 1.0 | 3.0 | 0.00 | 0.16 | 0.16 | 90 | 1021.2 |
| 20260831153116 | 70 | 196 | 1.0 | 4.0 | 0.00 | 0.16 | 0.16 | 89 | 1021.1 |
| 20260831151536 | 70 | 254 | 2.0 | 5.0 | 0.00 | 0.16 | 0.16 | 90 | 1021.2 |
| 20260831150037 | 70 | 198 | 1.0 | 4.0 | 0.00 | 0.16 | 0.16 | 93 | 1021.3 |
| 20260831144531 | 69 | 202 | 0.0 | 3.0 | 0.00 | 0.16 | 0.16 | 93 | 1021.3 |
| 20260831143029 | 68 | 232 | 2.0 | 4.0 | 0.00 | 0.16 | 0.16 | 93 | 1021.2 |
| 20260831141528 | 68 | 203 | 2.0 | 4.0 | 0.00 | 0.16 | 0.16 | 93 | 1021.1 |
| 20260831140026 | 68 | 180 | 2.0 | 4.0 | 0.02 | 0.16 | 0.16 | 94 | 1020.9 |
| 20260831134523 | 68 | 76 | 0.0 | 3.0 | 0.06 | 0.16 | 0.16 | 96 | 1021.1 |
| 20260831133022 | 67 | 175 | 0.0 | 2.0 | 0.09 | 0.16 | 0.16 | 96 | 1021.3 |
| 20260831131522 | 67 | 175 | 0.0 | 1.0 | 0.10 | 0.16 | 0.16 | 96 | 1021.3 |
| 20260831130019 | 66 | 136 | 1.0 | 3.0 | 0.11 | 0.13 | 0.13 | 96 | 1021.3 |
| 20260831124519 | 66 | 19 | 0.0 | 2.0 | 0.10 | 0.10 | 0.10 | 96 | 1021.9 |
| 20260831123021 | 66 | 91 | 0.0 | 1.0 | 0.07 | 0.07 | 0.07 | 96 | 1021.3 |
| 20260831121521 | 66 | 113 | 0.0 | 1.0 | 0.06 | 0.06 | 0.06 | 96 | 1021.2 |
| 20260831120020 | 65 | 327 | 0.0 | 2.0 | 0.01 | 0.01 | 0.01 | 96 | 1021.4 |
| 20260831114508 | 65 | 327 | 0.0 | 0.0 | 0.00 | 0.00 | 0.00 | 96 | 1021.4 |
| 20260831113007 | 65 | 327 | 0.0 | 1.0 | 0.00 | 0.00 | 0.00 | 96 | 1021.0 |
| 20260831111506 | 65 | 327 | 0.0 | 0.0 | 0.00 | 0.00 | 0.00 | 96 | 1021.0 |
| 20260831110005 | 65 | 327 | 0.0 | 3.0 | 0.00 | 0.00 | 0.00 | 96 | 1020.8 |
| 20260831104510 | 65 | 69 | 0.0 | 2.0 | 0.00 | 0.00 | 0.00 | 96 | 1020.8 |
| 20260831103004 | 65 | 69 | 0.0 | 1.0 | 0.00 | 0.00 | 0.00 | 95 | 1020.9 |
| 20260831101503 | 65 | 69 | 0.0 | 1.0 | 0.00 | 0.00 | 0.00 | 95 | 1020.6 |
| 20260831100010 | 65 | 69 | 0.0 | 3.0 | 0.00 | 0.00 | 0.00 | 95 | 1020.4 |
| 20260831094502 | 65 | 102 | 1.0 | 2.0 | 0.00 | 0.00 | 0.00 | 95 | 1020.6 |
| 20260831093001 | 65 | 252 | 0.0 | 1.0 | 0.00 | 0.00 | 0.00 | 95 | 1020.6 |
| 20260831091605 | 65 | 140 | 1.0 | 2.0 | 0.00 | 0.00 | 0.00 | 95 | 1020.5 |
| 20260831090109 | 66 | 140 | 0.0 | 2.0 | 0.00 | 0.00 | 0.00 | 95 | 1020.4 |
| 20260831084600 | 66 | 109 | 1.0 | 2.0 | 0.00 | 0.00 | 0.00 | 95 | 1020.4 |
| 20260831083058 | 66 | 109 | 0.0 | 2.0 | 0.00 | 0.00 | 0.00 | 95 | 1020.4 |
| 20260831081600 | 66 | 109 | 0.0 | 0.0 | 0.00 | 0.00 | 0.00 | 95 | 1020.1 |
| 20260831080055 | 66 | 109 | 0.0 | 2.0 | 0.00 | 0.00 | 0.00 | 95 | 1020.2 |
| 20260831074555 | 66 | 159 | 0.0 | 0.0 | 0.00 | 0.00 | 0.00 | 95 | 1020.2 |
| 20260831073053 | 66 | 159 | 0.0 | 1.0 | 0.00 | 0.00 | 0.00 | 95 | 1020.2 |
| 20260831071653 | 66 | 159 | 0.0 | 1.0 | 0.00 | 0.00 | 0.00 | 95 | 1019.9 |